Location: Newark
(57.0000°N, 24.5500°E)
Time: 09:27:24
(UTC+00:00)

ISS - Visible Passes

Search period start: 20 January 2020 00:00
Search period end: 30 January 2020 00:00
Orbit: 415 x 421 km, 51.6° (Epoch: 20 January)

Date Brightness Start Highest point End Pass type
(mag) Time Alt. Az. Time Alt. Az. Time Alt. Az.
23 Jan -1.3 16:41:17 10° S 16:42:25 12° SSE 16:42:25 12° SSE visible
24 Jan -1.4 17:28:12 10° SW 17:29:25 17° SSW 17:29:25 17° SSW visible
25 Jan -2.0 16:40:35 10° SSW 16:43:07 20° SSE 16:43:26 20° SSE visible
25 Jan -0.4 18:16:16 10° WSW 18:16:22 11° WSW 18:16:22 11° WSW visible
26 Jan -1.6 15:53:08 10° SSW 15:55:17 16° SSE 15:57:24 10° ESE visible
26 Jan -1.9 17:28:23 10° SW 17:30:20 25° SSW 17:30:20 25° SSW visible
27 Jan -2.4 16:40:34 10° SW 16:43:29 27° SSE 16:44:15 25° SE visible
27 Jan -0.6 18:16:43 10° WSW 18:17:11 13° WSW 18:17:11 13° WSW visible
28 Jan -2.0 15:52:48 10° SW 15:55:34 24° SSE 15:58:10 11° ESE visible
28 Jan -2.2 17:28:46 10° WSW 17:31:06 29° SSW 17:31:06 29° SSW visible
29 Jan -2.5 16:40:48 10° WSW 16:43:52 32° S 16:45:00 25° SE visible
29 Jan -0.7 18:17:17 10° WSW 18:17:55 14° WSW 18:17:55 14° WSW visible
